Temperature
17 17 16 16 16 16 16 16 16 15 15 15 15 15 15 15 15 15 15 15 14 14 14 14 14 14 14 14 14 14 14 13 13 13 13 13 13 13
16 16 16 16 16 16 16 16 16 16 15 15 15 15 15 14 14 14 14 14 14 14 14 14 13 13 13 13 13 13 13 13 13 13 13 12 12 12
16 16 16 16 16 16 16 16 16 16 15 14 14 14 14 14 14 14 13 13 13 13 13 13 13 13 13 13 13 13 12 12 12 12 12 12 12 12
15 15 15 15 15 15 15 15 15 15 15 14 14 14 14 14 14 13 13 13 13 13 13 13 12 12 12 12 12 12 12 11 11 11 11 11 11 11
15 15 15 15 15 15 15 15 15 15 15 14 14 14 13 13 13 13 13 12 12 12 12 12 12 12 12 12 11 11 11 11 11 11 11 10 10 10
15 15 15 15 15 15 14 14 14 14 14 14 13 13 13 13 13 13 12 12 12 12 12 12 11 11 11 11 11 11 10 10 10 10 10 10 10 10
14 14 14 14 14 14 14 14 14 14 14 13 13 13 13 12 12 12 12 12 12 11 11 11 11 11 10 10 10 10 10 10 9 9 9 9 9 9
14 14 14 14 14 14 14 13 13 13 13 13 13 12 12 12 12 12 12 12 11 11 11 11 11 10 10 10 10 10 9 9 9 9 9 9 9 9
13 13 13 13 13 13 13 13 13 13 13 13 12 12 12 12 12 12 12 11 11 11 11 10 10 10 10 10 9 9 9 9 9 9 9 8 8 8
13 13 13 13 13 13 13 12 12 12 12 12 12 12 11 11 11 11 11 11 11 11 11 10 10 10 10 10 9 9 9 9 8 8 8 8 8 8
13 13 13 12 12 12 12 12 12 11 11 11 11 11 11 11 11 11 11 11 10 10 10 10 10 9 9 9 9 9 9 8 8 8 8 8 8 7
12 12 12 12 12 12 12 11 11 11 11 11 11 11 10 10 10 11 11 10 10 10 10 10 9 9 9 9 9 9 9 8 8 8 8 8 7 7
12 12 12 12 11 11 11 11 11 11 11 11 11 10 10 10 10 10 10 10 10 9 9 9 9 9 9 9 9 9 8 8 8 8 8 8 7 7
12 12 12 11 11 11 11 11 11 11 11 10 10 10 10 10 10 10 10 10 10 9 9 9 9 9 9 9 9 9 8 8 8 8 8 7 7 7
12 11 11 11 11 11 11 10 10 10 10 10 10 10 10 10 10 10 10 9 9 9 9 9 9 9 9 9 9 8 8 8 8 7 7 7 7 7
11 11 11 11 11 10 10 10 10 10 10 10 10 10 10 10 9 9 9 9 9 9 9 9 9 9 9 9 8 8 8 8 8 7 7 7 7 7
11 11 11 11 11 10 10 10 10 10 9 9 9 9 9 9 9 9 9 9 9 9 9 9 9 8 8 8 8 8 8 8 8 7 7 7 7 7
11 11 11 10 10 10 10 10 10 9 9 9 9 9 9 9 9 9 9 9 9 9 9 9 8 8 8 8 8 8 8 8 7 7 7 7 7 7
11 11 10 10 10 10 10 10 9 9 9 9 9 9 9 9 9 9 9 9 9 8 8 8 8 8 8 8 8 8 8 7 7 7 7 7 7 6
11 10 10 10 10 10 10 9 9 9 9 9 9 9 9 9 9 9 9 8 8 8 8 8 8 8 8 8 8 8 8 7 7 7 7 7 6 6
10 10 10 10 10 9 9 9 9 9 9 8 8 8 8 8 8 8 8 8 8 8 8 8 8 8 8 8 7 7 7 7 7 7 7 7 6 6
10 10 10 9 9 9 9 9 9 8 8 8 8 8 8 8 8 8 8 8 8 8 8 7 7 7 7 7 7 7 7 7 7 7 7 7 6 6
10 9 9 9 9 9 9 8 8 8 8 8 8 8 8 8 8 8 8 8 7 7 7 7 7 7 7 7 7 7 7 7 7 7 7 7 7 6
Wind_Speed
2 2 1 1 1 2 2 2 2 2 1 1 1 3 6 8 10 10 10 10 11 10 10 9 9 9 9 10 10 10 10 10 10 9 8 7 7 6
2 2 2 1 1 1 2 1 1 2 1 1 1 2 4 7 10 11 10 11 11 11 10 10 10 10 10 10 11 11 11 11 11 11 11 11 11 10
4 4 3 2 2 1 1 0 1 2 3 1 2 3 3 4 6 8 9 10 10 11 11 11 11 11 11 11 11 11 11 11 11 11 11 10 10 10
5 5 5 4 4 3 2 1 1 2 4 4 2 1 2 2 3 4 6 8 10 11 12 11 11 10 10 10 10 10 10 10 10 10 10 10 10 9
6 6 6 6 5 4 3 2 1 2 3 4 3 2 1 2 2 3 4 5 7 9 10 10 10 10 9 9 8 8 8 8 8 8 9 9 9 9
7 7 8 8 7 5 4 4 3 3 3 3 3 2 2 1 1 2 2 2 3 5 7 8 9 9 9 8 8 7 7 6 6 6 7 7 7 7
6 7 9 11 13 10 7 6 5 4 3 3 3 3 2 1 0 1 2 2 2 3 3 5 7 6 6 5 5 5 5 4 4 4 5 5 5 6
5 5 7 9 10 12 13 13 10 7 4 4 4 4 2 1 1 1 1 1 1 1 2 2 5 3 5 5 4 4 3 2 2 2 2 3 3 4
6 6 7 8 7 6 8 10 12 13 10 7 6 5 4 3 2 2 2 1 1 1 2 1 2 3 4 5 6 4 2 1 1 1 1 0 1 2
7 7 7 8 9 7 8 8 8 8 8 7 6 5 5 4 4 2 1 1 1 2 2 1 1 1 3 5 6 4 3 3 3 3 2 1 1 2
8 8 8 7 10 8 6 7 6 5 7 8 7 5 4 5 5 3 2 1 1 1 2 1 1 1 1 2 5 5 5 4 4 3 3 4 3 2
6 7 10 9 9 9 5 5 5 3 3 3 2 1 2 3 6 4 3 3 2 1 2 2 1 1 0 1 2 5 4 4 5 4 4 4 4 3
5 5 5 8 8 8 7 5 3 2 1 1 2 2 2 3 3 5 4 3 3 2 2 1 1 1 1 1 1 2 3 3 4 4 5 5 4 3
5 4 4 5 5 6 5 6 6 4 1 2 3 3 2 2 2 2 3 2 1 1 2 2 1 1 1 2 1 1 1 2 3 2 3 3 4 5
4 4 4 2 2 2 3 5 5 3 3 3 2 2 1 1 1 0 0 0 2 0 1 1 1 1 1 2 1 1 1 1 1 0 0 2 3 4
2 3 1 1 2 1 1 2 1 2 3 3 2 2 2 1 1 1 1 1 1 1 1 2 1 1 2 3 2 1 1 1 1 1 1 2 3 3
0 1 1 1 1 1 1 1 2 2 2 2 2 2 2 2 2 2 2 2 2 1 1 1 2 2 3 2 2 1 1 1 1 1 2 3 2 2
1 0 0 1 1 1 1 1 2 2 3 2 2 2 2 2 2 2 2 2 3 2 2 1 1 1 3 2 1 2 1 1 1 1 2 2 3 1
0 0 1 1 1 1 1 1 2 2 1 2 2 2 3 2 2 2 2 2 3 3 2 2 2 2 4 4 3 3 2 2 2 2 2 2 3 2
1 0 0 1 1 1 2 2 2 1 1 2 2 2 3 3 3 3 2 3 3 3 3 2 1 2 3 4 4 4 5 3 2 2 2 2 2 2
0 0 1 1 1 2 2 2 2 2 2 2 2 3 3 3 3 4 3 3 3 3 4 3 2 3 3 3 3 2 2 5 5 3 2 2 3 2
0 1 1 1 1 1 1 1 2 2 2 2 2 3 3 3 4 4 4 3 3 3 4 3 3 3 3 3 4 4 3 2 5 7 8 7 3 3
1 1 1 0 1 1 1 1 2 2 2 3 3 3 4 4 3 4 3 3 4 4 4 4 4 3 4 4 4 4 4 3 2 2 3 8 12 12
Wind_Direction
322 310 282 279 263 240 220 218 223 216 226 199 117 107 107 103 108 105 99 105 107 103 98 93 89 82 75 67 60 54 49 43 38 35 35 32 24 16
355 348 340 315 274 250 243 254 210 194 204 136 101 92 102 112 115 114 109 110 109 109 105 100 93 86 80 74 68 61 56 53 49 47 46 46 43 40
7 6 360 350 340 336 338 84 145 151 150 136 103 90 84 100 121 126 122 118 113 116 114 108 101 94 87 81 75 69 63 58 54 51 48 47 45 42
21 16 12 15 13 2 8 38 95 129 148 146 131 113 87 115 136 141 126 123 125 127 123 116 110 103 94 85 77 71 65 61 57 54 51 49 47 46
34 28 19 19 15 15 20 28 69 102 123 135 137 135 99 103 98 106 106 116 122 128 127 121 116 107 98 89 82 75 67 62 58 55 52 50 50 48
52 48 42 35 23 17 37 37 58 88 111 123 127 121 95 77 104 126 120 111 113 121 115 125 119 107 102 94 87 78 69 61 56 53 53 52 51 49
68 69 66 62 52 45 49 45 55 66 80 96 105 102 90 99 112 179 135 146 126 119 127 137 136 127 121 111 97 87 74 61 52 49 51 52 52 51
62 70 78 66 60 59 60 58 56 62 64 76 84 89 76 54 3 26 129 149 133 100 125 144 140 137 136 133 131 114 90 77 63 46 42 48 49 47
54 51 59 58 53 58 67 64 57 55 61 72 72 69 65 32 10 23 39 58 103 131 111 135 132 129 129 140 145 134 136 144 176 224 257 340 25 29
61 59 58 50 40 47 69 70 64 52 57 72 71 62 60 27 9 13 22 78 90 66 63 121 125 126 126 147 170 173 186 209 224 230 234 242 302 325
68 58 56 52 30 42 73 81 78 73 76 88 95 97 80 45 28 23 11 38 91 88 30 24 80 116 140 157 191 207 214 222 226 229 232 237 249 291
85 73 57 47 36 35 53 68 68 50 57 80 93 78 70 57 49 37 21 25 38 68 22 5 359 43 79 151 178 191 208 235 236 238 254 258 252 255
94 84 63 45 42 36 38 51 30 343 331 86 102 90 72 59 51 47 37 37 37 26 14 9 349 353 331 295 228 200 194 219 216 229 251 254 256 244
82 90 85 56 40 35 35 18 7 360 6 68 71 59 54 54 56 54 46 43 44 123 24 30 349 335 334 317 298 261 223 226 202 198 215 237 244 246
71 94 107 78 29 35 26 10 8 9 15 33 54 63 77 86 70 53 234 281 308 320 92 55 324 333 319 300 299 283 268 250 201 116 179 218 229 223
101 125 167 252 284 339 17 354 7 27 10 2 22 26 36 49 36 23 332 288 275 267 205 199 257 293 300 291 288 297 318 284 265 219 263 260 253 231
22 168 176 186 208 228 113 72 44 36 13 360 6 19 23 23 10 2 347 338 344 343 324 274 274 285 285 296 292 285 297 307 295 254 280 283 267 230
22 274 114 61 47 51 46 58 58 32 3 356 2 9 6 358 350 352 354 345 343 342 333 327 341 323 315 331 330 303 308 313 310 298 288 290 290 259
285 333 73 72 39 28 35 47 51 42 353 342 352 1 349 340 336 335 345 344 343 334 331 355 14 2 334 327 316 286 270 280 288 296 293 292 285 264
240 197 108 81 72 44 35 39 35 39 3 346 353 351 340 336 336 337 352 360 340 331 335 351 4 343 308 303 300 289 255 254 272 275 279 280 286 276
172 106 52 50 50 62 45 18 10 17 21 4 4 355 342 334 338 338 339 339 323 325 334 335 314 283 269 288 300 297 268 247 253 238 249 273 285 275
33 58 43 34 45 49 53 357 351 21 25 351 354 347 340 338 335 329 330 331 322 325 326 320 308 308 302 300 304 304 298 291 276 261 249 245 241 252
36 11 339 16 76 70 30 13 10 17 14 355 349 343 339 336 330 329 329 329 331 334 334 329 326 315 306 300 304 308 313 304 289 285 278 267 251 249
Height
1546 1545 1545 1545 1546 1546 1546 1547 1548 1548 1550 1551 1552 1552 1552 1551 1551 1551 1551 1552 1552 1552 1552 1551 1551 1550 1550 1549 1548 1547 1546 1544 1543 1542 1541 1540 1540 1539
1545 1544 1543 1544 1544 1544 1544 1544 1545 1546 1548 1550 1550 1551 1551 1551 1550 1550 1551 1551 1551 1551 1551 1550 1550 1549 1548 1547 1546 1545 1543 1542 1540 1539 1538 1537 1537 1536
1543 1543 1543 1542 1542 1542 1542 1542 1543 1544 1545 1547 1548 1550 1550 1550 1549 1550 1550 1550 1550 1550 1550 1549 1549 1548 1547 1546 1545 1543 1542 1540 1539 1537 1536 1535 1534 1533
1543 1542 1542 1541 1540 1540 1541 1541 1542 1543 1544 1545 1547 1548 1549 1549 1549 1549 1550 1550 1549 1549 1549 1549 1548 1547 1546 1545 1544 1542 1541 1539 1538 1536 1535 1533 1532 1531
1542 1541 1541 1541 1540 1540 1540 1540 1541 1542 1543 1544 1545 1547 1548 1548 1549 1549 1549 1549 1549 1549 1548 1548 1547 1547 1546 1545 1543 1542 1540 1538 1537 1535 1534 1532 1531 1530
1542 1541 1541 1540 1540 1540 1539 1539 1540 1541 1542 1543 1544 1545 1546 1547 1548 1547 1548 1548 1549 1549 1548 1548 1547 1547 1546 1545 1543 1542 1540 1538 1537 1535 1533 1532 1530 1529
1543 1542 1542 1541 1541 1540 1540 1540 1540 1541 1542 1542 1543 1544 1545 1546 1547 1547 1547 1548 1548 1548 1547 1547 1547 1546 1545 1544 1543 1542 1540 1538 1537 1535 1533 1532 1530 1529
1544 1544 1543 1542 1542 1541 1541 1541 1542 1542 1542 1542 1543 1544 1545 1546 1546 1547 1547 1547 1547 1548 1547 1547 1546 1545 1544 1544 1543 1541 1540 1538 1537 1535 1533 1532 1530 1529
1545 1545 1544 1544 1543 1543 1543 1542 1542 1543 1544 1544 1543 1544 1544 1545 1545 1546 1546 1546 1546 1547 1546 1546 1546 1545 1544 1543 1542 1541 1540 1538 1536 1535 1533 1532 1530 1529
1546 1546 1546 1545 1545 1545 1544 1544 1544 1544 1545 1544 1545 1545 1545 1545 1546 1546 1546 1546 1546 1546 1546 1545 1545 1544 1543 1543 1542 1541 1539 1537 1536 1534 1533 1531 1530 1528
1548 1547 1547 1547 1547 1547 1546 1545 1545 1546 1546 1546 1546 1546 1546 1546 1546 1545 1545 1545 1545 1545 1545 1545 1544 1543 1542 1542 1541 1539 1538 1537 1535 1534 1532 1530 1529 1527
1549 1549 1549 1548 1548 1548 1548 1547 1547 1548 1548 1547 1547 1547 1547 1546 1546 1545 1545 1544 1544 1544 1544 1544 1543 1542 1541 1540 1540 1539 1537 1536 1535 1533 1531 1530 1528 1526
1551 1551 1550 1550 1550 1550 1549 1549 1549 1549 1549 1549 1549 1548 1548 1547 1546 1546 1545 1545 1544 1544 1544 1543 1542 1541 1541 1539 1538 1537 1536 1535 1534 1532 1531 1529 1528 1526
1552 1552 1552 1552 1552 1551 1551 1551 1551 1551 1551 1550 1550 1549 1548 1548 1547 1546 1546 1545 1544 1544 1543 1542 1541 1540 1540 1538 1537 1536 1535 1534 1532 1531 1530 1528 1527 1525
1554 1554 1554 1553 1553 1553 1553 1552 1552 1551 1551 1551 1550 1550 1549 1548 1547 1547 1546 1545 1544 1543 1543 1542 1541 1540 1539 1538 1536 1535 1534 1533 1531 1530 1528 1527 1525 1524
1554 1555 1555 1555 1554 1554 1553 1553 1552 1552 1551 1551 1551 1550 1550 1549 1548 1547 1546 1545 1544 1543 1542 1541 1540 1539 1537 1536 1535 1534 1533 1531 1530 1528 1527 1525 1524 1522
1555 1555 1555 1555 1555 1555 1554 1554 1553 1552 1552 1551 1551 1550 1549 1549 1548 1547 1546 1545 1544 1542 1541 1540 1539 1538 1536 1535 1533 1532 1531 1530 1528 1527 1525 1523 1522 1521
1555 1555 1555 1555 1555 1555 1554 1554 1553 1552 1552 1551 1551 1550 1549 1548 1547 1546 1545 1544 1543 1542 1541 1539 1538 1536 1535 1533 1533 1531 1530 1528 1527 1525 1523 1522 1520 1519
1555 1555 1555 1555 1555 1555 1554 1554 1553 1552 1552 1551 1550 1550 1549 1548 1547 1546 1545 1543 1542 1541 1539 1538 1536 1535 1533 1531 1530 1530 1528 1526 1525 1523 1521 1520 1518 1516
1554 1554 1555 1555 1554 1554 1553 1553 1553 1552 1551 1551 1550 1549 1548 1547 1546 1545 1544 1542 1541 1539 1538 1537 1535 1533 1532 1531 1528 1527 1526 1524 1523 1521 1519 1517 1516 1514
1553 1554 1554 1554 1553 1553 1552 1552 1552 1551 1550 1550 1549 1548 1547 1546 1545 1544 1543 1541 1540 1538 1537 1535 1534 1532 1530 1529 1527 1525 1524 1522 1521 1519 1516 1514 1513 1511
1552 1552 1552 1552 1552 1551 1551 1551 1551 1550 1549 1548 1548 1547 1546 1545 1544 1543 1541 1540 1538 1537 1535 1533 1532 1530 1528 1527 1525 1523 1521 1520 1518 1516 1514 1513 1511 1508
1551 1551 1551 1551 1550 1550 1550 1549 1549 1548 1548 1547 1546 1545 1544 1543 1542 1541 1540 1538 1537 1535 1533 1531 1530 1528 1526 1525 1523 1521 1519 1517 1515 1513 1512 1510 1509 1507